Time,TemperatureF,DewpointF,PressureIn,WindDirection,WindDirectionDegrees,WindSpeedMPH,WindSpeedGustMPH,Humidity,HourlyPrecipIn,Conditions,Clouds,dailyrainin,SoftwareType,DateUTC
2013-02-04 06:38:00,56.7,37.2,29.32,SSE,161,8.3,8.3,48,0.00,,---,0.00,VWS V13.01,2013-02-04 12:38:00,
2013-02-04 06:43:00,56.7,37.2,29.32,South,172,5.8,5.8,48,0.00,,---,0.00,VWS V13.01,2013-02-04 12:43:00,
2013-02-04 06:48:00,56.5,37.0,29.32,SE,139,6.3,8.1,48,0.00,,---,0.00,VWS V13.01,2013-02-04 12:48:00,
2013-02-04 06:53:00,56.5,37.0,29.32,SSE,154,10.5,10.5,48,0.00,,---,0.00,VWS V13.01,2013-02-04 12:53:00,
2013-02-04 06:58:00,56.5,37.6,29.32,South,177,11.0,11.0,49,0.00,,---,0.00,VWS V13.01,2013-02-04 12:58:00,
2013-02-04 07:03:00,56.5,38.6,29.32,South,171,5.8,8.1,51,0.00,,---,0.00,VWS V13.01,2013-02-04 13:03:00,
2013-02-04 07:08:00,56.3,38.9,29.32,SSE,163,5.8,8.1,52,0.00,,---,0.00,VWS V13.01,2013-02-04 13:08:00,
2013-02-04 07:13:00,56.3,39.4,29.32,SSE,155,3.6,3.6,53,0.00,,---,0.00,VWS V13.01,2013-02-04 13:13:00,
2013-02-04 07:18:00,56.3,39.9,29.32,SE,144,8.7,8.7,54,0.00,,---,0.00,VWS V13.01,2013-02-04 13:18:00,
2013-02-04 07:23:00,56.3,39.9,29.32,South,177,4.9,4.9,54,0.00,,---,0.00,VWS V13.01,2013-02-04 13:23:00,
2013-02-04 07:28:00,56.5,40.0,29.32,SSE,157,5.8,5.8,54,0.00,,---,0.00,VWS V13.01,2013-02-04 13:28:00,
2013-02-04 07:33:00,56.5,40.0,29.32,SSE,156,8.7,9.6,54,0.00,,---,0.00,VWS V13.01,2013-02-04 13:33:00,
2013-02-04 07:38:00,56.7,40.2,29.32,SSE,163,7.6,8.7,54,0.00,,---,0.00,VWS V13.01,2013-02-04 13:38:00,
2013-02-04 07:43:00,56.7,39.7,29.32,South,169,3.1,12.8,53,0.00,,---,0.00,VWS V13.01,2013-02-04 13:43:00,
2013-02-04 07:48:00,56.7,39.7,29.32,SE,144,11.0,11.0,53,0.00,,---,0.00,VWS V13.01,2013-02-04 13:48:00,
2013-02-04 07:53:00,56.5,39.6,29.32,SSE,165,6.3,9.6,53,0.00,,---,0.00,VWS V13.01,2013-02-04 13:53:00,
2013-02-04 07:58:00,56.5,40.0,29.32,South,173,6.3,6.3,54,0.00,,---,0.00,VWS V13.01,2013-02-04 13:58:00,
2013-02-04 08:03:00,56.3,39.9,29.32,SSE,157,8.1,8.1,54,0.00,,---,0.00,VWS V13.01,2013-02-04 14:03:00,
2013-02-04 08:08:00,56.3,40.8,29.32,SSE,157,7.2,7.2,56,0.00,,---,0.00,VWS V13.01,2013-02-04 14:08:00,
2013-02-04 08:13:00,56.1,41.6,29.32,SSE,164,5.8,5.8,58,0.00,,---,0.00,VWS V13.01,2013-02-04 14:13:00,
2013-02-04 08:18:00,56.1,42.9,29.32,SE,146,4.0,6.3,61,0.00,,---,0.00,VWS V13.01,2013-02-04 14:18:00,
2013-02-04 08:23:00,55.9,43.5,29.32,ESE,119,5.4,8.1,63,0.00,,---,0.00,VWS V13.01,2013-02-04 14:23:00,
2013-02-04 08:28:00,55.9,44.4,29.32,South,172,6.3,8.1,65,0.00,,---,0.00,VWS V13.01,2013-02-04 14:28:00,
2013-02-04 08:33:00,55.9,45.5,29.32,South,181,6.3,7.6,68,0.00,,---,0.00,VWS V13.01,2013-02-04 14:33:00,
2013-02-04 08:38:00,55.9,45.9,29.32,SSE,154,8.7,8.7,69,0.00,,---,0.00,VWS V13.01,2013-02-04 14:38:00,
2013-02-04 08:43:00,55.9,46.7,29.32,South,171,6.3,6.3,71,0.00,,---,0.00,VWS V13.01,2013-02-04 14:43:00,
2013-02-04 08:48:00,56.1,47.2,29.32,SE,138,4.9,8.1,72,0.00,,---,0.00,VWS V13.01,2013-02-04 14:48:00,
2013-02-04 08:53:00,56.3,48.1,29.32,SSE,157,4.0,5.8,74,0.00,,---,0.00,VWS V13.01,2013-02-04 14:53:00,
2013-02-04 08:58:00,56.5,48.7,29.32,SSE,160,8.3,8.3,75,0.00,,---,0.00,VWS V13.01,2013-02-04 14:58:00,
2013-02-04 09:03:00,56.5,49.0,29.32,South,170,8.1,8.1,76,0.00,,---,0.00,VWS V13.01,2013-02-04 15:03:00,
2013-02-04 09:08:00,56.7,49.9,29.32,South,169,8.1,8.3,78,0.00,,---,0.00,VWS V13.01,2013-02-04 15:08:00,
2013-02-04 09:13:00,57.0,50.6,29.32,SSE,151,8.3,8.7,79,0.00,,---,0.00,VWS V13.01,2013-02-04 15:13:00,
2013-02-04 09:18:00,57.4,50.9,29.32,SSE,160,5.8,8.1,79,0.00,,---,0.00,VWS V13.01,2013-02-04 15:18:00,
2013-02-04 09:23:00,57.7,51.3,29.32,SE,143,8.3,11.0,79,0.00,,---,0.00,VWS V13.01,2013-02-04 15:23:00,
2013-02-04 09:28:00,58.1,51.3,29.32,SSE,165,11.0,12.8,78,0.00,,---,0.00,VWS V13.01,2013-02-04 15:28:00,
2013-02-04 09:33:00,58.3,50.8,29.32,SSE,157,10.1,14.5,76,0.00,,---,0.00,VWS V13.01,2013-02-04 15:33:00,
2013-02-04 09:38:00,58.5,50.2,29.32,SE,144,8.1,8.3,74,0.00,,---,0.00,VWS V13.01,2013-02-04 15:38:00,
2013-02-04 09:43:00,58.6,50.4,29.32,SSE,163,10.5,13.2,74,0.00,,---,0.00,VWS V13.01,2013-02-04 15:43:00,
2013-02-04 09:48:00,58.8,50.2,29.32,South,181,12.8,12.8,73,0.00,,---,0.00,VWS V13.01,2013-02-04 15:48:00,
2013-02-04 09:53:00,59.0,49.6,29.32,SSW,208,11.0,11.0,71,0.00,,---,0.00,VWS V13.01,2013-02-04 15:53:00,
2013-02-04 09:58:00,59.2,49.4,29.32,SSE,148,8.7,10.5,70,0.00,,---,0.00,VWS V13.01,2013-02-04 15:58:00,
2013-02-04 10:03:00,59.5,50.1,29.32,SSE,168,5.8,8.3,71,0.00,,---,0.00,VWS V13.01,2013-02-04 16:03:00,
2013-02-04 10:08:00,60.1,50.3,29.32,SSW,208,5.4,10.1,70,0.00,,---,0.00,VWS V13.01,2013-02-04 16:08:00,
2013-02-04 10:12:00,60.8,50.6,29.32,South,181,7.6,13.2,69,0.00,,---,0.00,VWS V13.01,2013-02-04 16:12:00,
2013-02-04 10:17:00,61.5,50.9,29.32,SSE,166,5.4,5.8,68,0.00,,---,0.00,VWS V13.01,2013-02-04 16:17:00,
2013-02-04 10:22:00,62.1,50.2,29.32,SSE,147,12.3,12.8,65,0.00,,---,0.00,VWS V13.01,2013-02-04 16:22:00,
2013-02-04 10:27:00,62.2,50.3,29.32,South,191,6.3,10.1,65,0.00,,---,0.00,VWS V13.01,2013-02-04 16:27:00,
2013-02-04 10:32:00,62.2,50.3,29.32,SSE,156,4.9,10.1,65,0.00,,---,0.00,VWS V13.01,2013-02-04 16:32:00,
2013-02-04 10:37:00,62.6,50.7,29.32,SSW,203,5.4,12.8,65,0.00,,---,0.00,VWS V13.01,2013-02-04 16:37:00,
2013-02-04 10:42:00,63.3,51.0,29.32,SE,140,8.7,11.0,64,0.00,,---,0.00,VWS V13.01,2013-02-04 16:42:00,
2013-02-04 10:47:00,63.5,50.7,29.32,South,182,10.5,10.5,63,0.00,,---,0.00,VWS V13.01,2013-02-04 16:47:00,
2013-02-04 10:52:00,63.7,51.3,29.32,South,173,7.6,14.5,64,0.00,,---,0.00,VWS V13.01,2013-02-04 16:52:00,
2013-02-04 10:57:00,64.2,51.4,29.32,SSE,164,3.6,6.3,63,0.00,,---,0.00,VWS V13.01,2013-02-04 16:57:00,
2013-02-04 11:02:00,64.8,50.6,29.32,SSE,159,9.6,12.3,60,0.00,,---,0.00,VWS V13.01,2013-02-04 17:02:00,
2013-02-04 11:07:00,64.9,51.2,29.32,SSE,164,4.0,10.5,61,0.00,,---,0.00,VWS V13.01,2013-02-04 17:07:00,
2013-02-04 11:12:00,65.1,50.9,29.32,SSE,162,4.9,10.5,60,0.00,,---,0.00,VWS V13.01,2013-02-04 17:12:00,
2013-02-04 11:17:00,65.3,50.6,29.32,SSE,150,5.8,6.3,59,0.00,,---,0.00,VWS V13.01,2013-02-04 17:17:00,
2013-02-04 11:22:00,65.5,50.8,29.29,South,169,8.7,8.7,59,0.00,,---,0.00,VWS V13.01,2013-02-04 17:22:00,
2013-02-04 11:27:00,65.5,50.8,29.29,SE,142,12.3,12.3,59,0.00,,---,0.00,VWS V13.01,2013-02-04 17:27:00,
2013-02-04 11:32:00,65.7,51.0,29.29,SE,141,11.4,11.4,59,0.00,,---,0.00,VWS V13.01,2013-02-04 17:32:00,
2013-02-04 11:37:00,65.8,51.1,29.29,South,186,10.1,10.5,59,0.00,,---,0.00,VWS V13.01,2013-02-04 17:37:00,
2013-02-04 11:42:00,65.8,51.1,29.29,SE,131,6.3,7.2,59,0.00,,---,0.00,VWS V13.01,2013-02-04 17:42:00,
2013-02-04 11:47:00,65.7,51.0,29.29,South,184,8.3,15.4,59,0.00,,---,0.00,VWS V13.01,2013-02-04 17:47:00,
2013-02-04 11:52:00,65.5,51.7,29.29,South,174,8.7,10.1,61,0.00,,---,0.00,VWS V13.01,2013-02-04 17:52:00,
2013-02-04 11:57:00,65.3,51.5,29.29,SSE,160,5.8,11.0,61,0.00,,---,0.00,VWS V13.01,2013-02-04 17:57:00,
2013-02-04 12:03:00,65.3,52.0,29.29,SSE,167,6.3,8.1,62,0.00,,---,0.00,VWS V13.01,2013-02-04 18:03:00,
2013-02-04 12:08:00,65.7,52.7,29.29,SSE,152,4.0,4.0,63,0.00,,---,0.00,VWS V13.01,2013-02-04 18:08:00,
2013-02-04 12:13:00,66.2,52.8,29.29,South,189,4.0,6.3,62,0.00,,---,0.00,VWS V13.01,2013-02-04 18:13:00,
2013-02-04 12:18:00,66.6,52.7,29.29,South,173,10.5,15.0,61,0.00,,---,0.00,VWS V13.01,2013-02-04 18:18:00,
2013-02-04 12:23:00,66.4,52.5,29.29,South,172,7.6,7.6,61,0.00,,---,0.00,VWS V13.01,2013-02-04 18:23:00,
2013-02-04 12:28:00,66.2,52.8,29.29,SSW,203,10.5,11.0,62,0.00,,---,0.00,VWS V13.01,2013-02-04 18:28:00,
2013-02-04 12:33:00,66.2,52.8,29.29,SSW,193,7.6,11.0,62,0.00,,---,0.00,VWS V13.01,2013-02-04 18:33:00,
2013-02-04 12:38:00,66.4,53.4,29.29,SE,125,6.3,6.3,63,0.00,,---,0.00,VWS V13.01,2013-02-04 18:38:00,
2013-02-04 12:43:00,66.9,53.9,29.29,South,170,7.6,9.6,63,0.00,,---,0.00,VWS V13.01,2013-02-04 18:43:00,
2013-02-04 12:48:00,67.1,53.2,29.29,South,173,8.7,8.7,61,0.00,,---,0.00,VWS V13.01,2013-02-04 18:48:00,
2013-02-04 12:53:00,67.3,52.9,29.26,SSE,160,8.1,8.7,60,0.00,,---,0.00,VWS V13.01,2013-02-04 18:53:00,
2013-02-04 12:58:00,67.3,53.4,29.26,SSE,162,5.8,10.5,61,0.00,,---,0.00,VWS V13.01,2013-02-04 18:58:00,
2013-02-04 13:03:00,67.3,52.9,29.26,South,178,5.8,7.6,60,0.00,,---,0.00,VWS V13.01,2013-02-04 19:03:00,
2013-02-04 13:08:00,67.5,54.0,29.26,SSW,199,7.6,11.0,62,0.00,,---,0.00,VWS V13.01,2013-02-04 19:08:00,
2013-02-04 13:13:00,68.0,54.1,29.26,South,181,4.5,7.6,61,0.00,,---,0.00,VWS V13.01,2013-02-04 19:13:00,
2013-02-04 13:18:00,68.5,53.7,29.26,SE,126,4.0,8.7,59,0.00,,---,0.00,VWS V13.01,2013-02-04 19:18:00,
2013-02-04 13:23:00,68.7,53.4,29.26,SSE,159,5.4,8.7,58,0.00,,---,0.00,VWS V13.01,2013-02-04 19:23:00,
2013-02-04 13:28:00,68.7,53.8,29.26,South,176,5.4,5.8,59,0.00,,---,0.00,VWS V13.01,2013-02-04 19:28:00,
2013-02-04 13:33:00,68.7,53.4,29.26,SW,218,8.1,8.1,58,0.00,,---,0.00,VWS V13.01,2013-02-04 19:33:00,
2013-02-04 13:38:00,68.7,53.8,29.23,South,190,4.0,4.0,59,0.00,,---,0.00,VWS V13.01,2013-02-04 19:38:00,
2013-02-04 13:43:00,69.1,53.7,29.23,SSE,153,6.3,7.6,58,0.00,,---,0.00,VWS V13.01,2013-02-04 19:43:00,
2013-02-04 13:48:00,69.4,53.1,29.23,SSW,197,6.3,6.3,56,0.00,,---,0.00,VWS V13.01,2013-02-04 19:48:00,
2013-02-04 13:53:00,70.2,53.3,29.23,South,191,5.4,8.7,55,0.00,,---,0.00,VWS V13.01,2013-02-04 19:53:00,
2013-02-04 13:58:00,70.3,51.9,29.23,SSW,207,7.6,7.6,52,0.00,,---,0.00,VWS V13.01,2013-02-04 19:58:00,
2013-02-04 14:03:00,70.2,52.2,29.23,SSW,211,7.2,8.3,53,0.00,,---,0.00,VWS V13.01,2013-02-04 20:03:00,
2013-02-04 14:08:00,70.2,52.8,29.23,SSW,208,8.7,9.6,54,0.00,,---,0.00,VWS V13.01,2013-02-04 20:08:00,
2013-02-04 14:13:00,70.3,51.4,29.23,SW,219,5.4,5.4,51,0.00,,---,0.00,VWS V13.01,2013-02-04 20:13:00,
2013-02-04 14:18:00,70.3,51.9,29.23,South,189,2.7,6.3,52,0.00,,---,0.00,VWS V13.01,2013-02-04 20:18:00,
2013-02-04 14:23:00,70.2,51.7,29.23,South,179,4.0,5.4,52,0.00,,---,0.00,VWS V13.01,2013-02-04 20:23:00,
2013-02-04 14:28:00,69.8,51.9,29.23,South,175,5.8,8.1,53,0.00,,---,0.00,VWS V13.01,2013-02-04 20:28:00,
2013-02-04 14:33:00,70.0,52.6,29.23,ESE,108,4.0,8.3,54,0.00,,---,0.00,VWS V13.01,2013-02-04 20:33:00,
2013-02-04 14:38:00,70.7,51.7,29.23,South,181,6.3,7.6,51,0.00,,---,0.00,VWS V13.01,2013-02-04 20:38:00,
2013-02-04 14:43:00,70.9,50.8,29.23,West,266,6.3,6.3,49,0.00,,---,0.00,VWS V13.01,2013-02-04 20:43:00,
2013-02-04 14:48:00,70.5,51.5,29.23,SW,235,3.6,4.0,51,0.00,,---,0.00,VWS V13.01,2013-02-04 20:48:00,
2013-02-04 14:53:00,70.5,51.5,29.23,South,189,2.7,3.6,51,0.00,,---,0.00,VWS V13.01,2013-02-04 20:53:00,
2013-02-04 14:58:00,70.5,51.5,29.23,SSE,156,7.6,7.6,51,0.00,,---,0.00,VWS V13.01,2013-02-04 20:58:00,
2013-02-04 15:02:00,70.7,51.7,29.23,SE,142,4.0,6.3,51,0.00,,---,0.00,VWS V13.01,2013-02-04 21:02:00,
2013-02-04 15:07:00,70.9,50.8,29.21,SSE,151,3.6,6.3,49,0.00,,---,0.00,VWS V13.01,2013-02-04 21:07:00,
2013-02-04 15:13:00,70.5,51.0,29.21,SSE,153,6.3,6.3,50,0.00,,---,0.00,VWS V13.01,2013-02-04 21:13:00,
2013-02-04 15:17:00,70.2,51.2,29.21,SE,136,5.4,6.7,51,0.00,,---,0.00,VWS V13.01,2013-02-04 21:17:00,
2013-02-04 15:22:00,70.5,51.5,29.21,SW,225,4.0,4.9,51,0.00,,---,0.00,VWS V13.01,2013-02-04 21:22:00,
2013-02-04 15:27:00,70.7,50.6,29.21,SW,224,0.0,4.5,49,0.00,,---,0.00,VWS V13.01,2013-02-04 21:27:00,
2013-02-04 15:32:00,70.7,50.6,29.21,SSE,157,3.6,4.0,49,0.00,,---,0.00,VWS V13.01,2013-02-04 21:32:00,
2013-02-04 15:37:00,70.7,51.2,29.21,South,190,3.1,3.1,50,0.00,,---,0.00,VWS V13.01,2013-02-04 21:37:00,
2013-02-04 15:42:00,70.7,50.6,29.21,SSE,166,3.6,3.6,49,0.00,,---,0.00,VWS V13.01,2013-02-04 21:42:00,
2013-02-04 15:47:00,70.9,50.8,29.21,SSW,202,0.0,5.8,49,0.00,,---,0.00,VWS V13.01,2013-02-04 21:47:00,
2013-02-04 15:52:00,71.2,51.1,29.23,South,183,3.1,4.0,49,0.00,,---,0.00,VWS V13.01,2013-02-04 21:52:00,
2013-02-04 15:57:00,71.2,50.6,29.23,SE,128,2.7,4.9,48,0.00,,---,0.00,VWS V13.01,2013-02-04 21:57:00,
2013-02-04 16:02:00,71.2,51.1,29.23,SW,220,2.7,2.7,49,0.00,,---,0.00,VWS V13.01,2013-02-04 22:02:00,
2013-02-04 16:07:00,71.1,51.0,29.23,SSE,167,3.1,3.6,49,0.00,,---,0.00,VWS V13.01,2013-02-04 22:07:00,
2013-02-04 16:12:00,70.9,50.8,29.23,SE,128,2.2,4.0,49,0.00,,---,0.00,VWS V13.01,2013-02-04 22:12:00,
2013-02-04 16:17:00,70.7,51.2,29.23,SE,128,0.0,3.1,50,0.00,,---,0.00,VWS V13.01,2013-02-04 22:17:00,
2013-02-04 16:22:00,70.3,50.3,29.23,SE,129,0.0,0.0,49,0.00,,---,0.00,VWS V13.01,2013-02-04 22:22:00,
2013-02-04 16:27:00,70.2,49.6,29.23,SE,129,0.0,0.0,48,0.00,,---,0.00,VWS V13.01,2013-02-04 22:27:00,
2013-02-04 16:32:00,70.0,50.0,29.23,SE,128,0.0,0.0,49,0.00,,---,0.00,VWS V13.01,2013-02-04 22:32:00,
2013-02-04 16:37:00,69.8,50.3,29.21,ESE,123,4.9,5.4,50,0.00,,---,0.00,VWS V13.01,2013-02-04 22:37:00,
2013-02-04 16:42:00,69.6,51.8,29.21,SE,124,4.0,7.6,53,0.00,,---,0.00,VWS V13.01,2013-02-04 22:42:00,
2013-02-04 16:47:00,69.6,51.2,29.21,ESE,119,4.0,5.8,52,0.00,,---,0.00,VWS V13.01,2013-02-04 22:47:00,
2013-02-04 16:52:00,69.4,51.6,29.21,SSE,157,6.3,6.3,53,0.00,,---,0.00,VWS V13.01,2013-02-04 22:52:00,
2013-02-04 16:57:00,69.4,52.1,29.21,SE,143,2.7,4.9,54,0.00,,---,0.00,VWS V13.01,2013-02-04 22:57:00,
2013-02-04 17:02:00,69.3,51.4,29.21,SSE,151,6.3,6.3,53,0.00,,---,0.00,VWS V13.01,2013-02-04 23:02:00,
2013-02-04 17:07:00,69.1,51.8,29.21,SE,133,2.7,4.9,54,0.00,,---,0.00,VWS V13.01,2013-02-04 23:07:00,
2013-02-04 17:12:00,69.1,51.8,29.21,SE,137,2.2,4.9,54,0.00,,---,0.00,VWS V13.01,2013-02-04 23:12:00,
2013-02-04 17:17:00,68.9,51.6,29.21,SE,143,7.6,7.6,54,0.00,,---,0.00,VWS V13.01,2013-02-04 23:17:00,
2013-02-04 17:22:00,68.7,51.4,29.21,SSE,157,5.8,5.8,54,0.00,,---,0.00,VWS V13.01,2013-02-04 23:22:00,
2013-02-04 17:27:00,68.5,51.8,29.21,SE,130,8.1,8.3,55,0.00,,---,0.00,VWS V13.01,2013-02-04 23:27:00,
2013-02-04 17:32:00,68.2,51.9,29.21,SE,135,3.1,6.3,56,0.00,,---,0.00,VWS V13.01,2013-02-04 23:32:00,
2013-02-04 17:37:00,68.0,51.7,29.21,SE,129,0.0,5.8,56,0.00,,---,0.00,VWS V13.01,2013-02-04 23:37:00,
2013-02-04 17:42:00,67.6,51.9,29.21,SSE,154,4.9,4.9,57,0.00,,---,0.00,VWS V13.01,2013-02-04 23:42:00,
2013-02-04 17:47:00,67.5,52.2,29.21,SE,139,3.1,8.1,58,0.00,,---,0.00,VWS V13.01,2013-02-04 23:47:00,
2013-02-04 17:52:00,67.3,52.0,29.23,SE,139,0.0,0.0,58,0.00,,---,0.00,VWS V13.01,2013-02-04 23:52:00,
2013-02-04 17:57:00,67.3,52.5,29.23,SE,130,3.1,4.9,59,0.00,,---,0.00,VWS V13.01,2013-02-04 23:57:00,
2013-02-04 18:02:00,67.1,52.3,29.23,ESE,110,4.0,4.9,59,0.00,,---,0.00,VWS V13.01,2013-02-05 00:02:00,
2013-02-04 18:07:00,66.9,52.1,29.23,East,96,0.0,2.2,59,0.00,,---,0.00,VWS V13.01,2013-02-05 00:07:00,
2013-02-04 18:12:00,66.6,52.3,29.23,East,96,3.6,3.6,60,0.00,,---,0.00,VWS V13.01,2013-02-05 00:12:00,
2013-02-04 18:17:00,66.4,52.1,29.23,East,96,3.6,3.6,60,0.00,,---,0.00,VWS V13.01,2013-02-05 00:17:00,
2013-02-04 18:22:00,66.2,52.4,29.23,East,96,3.6,3.6,61,0.00,,---,0.00,VWS V13.01,2013-02-05 00:22:00,
2013-02-04 18:27:00,66.0,52.6,29.23,East,96,2.7,3.1,62,0.00,,---,0.00,VWS V13.01,2013-02-05 00:27:00,
2013-02-04 18:32:00,65.8,52.5,29.23,East,96,0.0,0.0,62,0.00,,---,0.00,VWS V13.01,2013-02-05 00:32:00,
2013-02-04 18:37:00,65.7,52.7,29.23,East,97,2.2,5.8,63,0.00,,---,0.00,VWS V13.01,2013-02-05 00:37:00,
2013-02-04 18:42:00,65.5,52.6,29.23,East,96,4.0,5.8,63,0.00,,---,0.00,VWS V13.01,2013-02-05 00:42:00,
2013-02-04 18:47:00,65.1,52.7,29.23,East,96,4.9,4.9,64,0.00,,---,0.00,VWS V13.01,2013-02-05 00:47:00,
2013-02-04 18:52:00,65.1,52.7,29.23,East,96,3.6,3.6,64,0.00,,---,0.00,VWS V13.01,2013-02-05 00:52:00,
2013-02-04 18:57:00,64.9,52.5,29.23,East,96,4.9,5.4,64,0.00,,---,0.00,VWS V13.01,2013-02-05 00:57:00,
2013-02-04 19:02:00,64.8,52.7,29.23,East,97,3.1,3.1,65,0.00,,---,0.00,VWS V13.01,2013-02-05 01:02:00,
2013-02-04 19:07:00,64.6,52.6,29.26,East,93,4.9,4.9,65,0.00,,---,0.00,VWS V13.01,2013-02-05 01:07:00,
2013-02-04 19:12:00,64.4,52.4,29.26,East,93,3.1,3.1,65,0.00,,---,0.00,VWS V13.01,2013-02-05 01:12:00,
2013-02-04 19:17:00,64.4,52.8,29.26,East,93,3.6,5.4,66,0.00,,---,0.00,VWS V13.01,2013-02-05 01:17:00,
2013-02-04 19:22:00,64.2,53.0,29.26,East,93,0.0,0.0,67,0.00,,---,0.00,VWS V13.01,2013-02-05 01:22:00,
2013-02-04 19:27:00,64.0,53.3,29.26,East,93,3.1,4.0,68,0.00,,---,0.00,VWS V13.01,2013-02-05 01:27:00,
2013-02-04 19:32:00,63.9,53.5,29.26,East,93,3.1,3.6,69,0.00,,---,0.00,VWS V13.01,2013-02-05 01:32:00,
2013-02-04 19:37:00,63.9,53.9,29.26,East,93,4.0,4.0,70,0.00,,---,0.00,VWS V13.01,2013-02-05 01:37:00,
2013-02-04 19:42:00,63.7,53.7,29.26,East,94,3.6,4.0,70,0.00,,---,0.00,VWS V13.01,2013-02-05 01:42:00,
2013-02-04 19:47:00,63.5,53.9,29.26,East,94,4.5,4.5,71,0.00,,---,0.00,VWS V13.01,2013-02-05 01:47:00,
2013-02-04 19:52:00,63.3,53.8,29.26,East,93,2.7,3.1,71,0.00,,---,0.00,VWS V13.01,2013-02-05 01:52:00,
2013-02-04 19:57:00,63.1,53.6,29.26,East,92,2.7,3.1,71,0.00,,---,0.00,VWS V13.01,2013-02-05 01:57:00,